Location: Redwood City
(37.4850°N, 122.2350°W)
Time: 21:23:35
(UTC-07:00)

ISS - Visible Passes

Search period start: 19 October 2014 00:00
Search period end: 29 October 2014 00:00
Orbit: 413 x 416 km, 51.6° (Epoch: 19 October)

Date Brightness Start Highest point End Pass type
(mag) Time Alt. Az. Time Alt. Az. Time Alt. Az.
20 Oct -0.9 19:50:37 10° N 19:51:53 13° NNE 19:51:53 13° NNE visible
21 Oct -0.7 19:02:40 10° N 19:03:00 10° NNE 19:03:20 10° NNE visible
21 Oct -0.3 20:37:20 10° NW 20:37:46 13° NNW 20:37:46 13° NNW visible
22 Oct -1.6 19:48:33 10° NNW 19:50:49 23° NNE 19:50:49 23° NNE visible
23 Oct -1.3 18:59:51 10° NNW 19:02:04 17° NNE 19:03:56 12° ENE visible
23 Oct -0.6 20:35:46 10° NW 20:36:49 19° NW 20:36:49 19° NW visible
24 Oct -3.2 19:46:43 10° NW 19:50:01 57° NE 19:50:03 57° NE visible
25 Oct -2.4 18:57:46 10° NNW 19:00:50 33° NNE 19:03:24 13° E visible
25 Oct -0.6 20:34:41 10° WNW 20:36:18 20° WSW 20:36:18 20° WSW visible
26 Oct -2.3 19:45:10 10° WNW 19:48:22 44° SW 19:49:51 26° SSE visible
27 Oct -3.3 18:55:54 10° NW 18:59:15 88° SW 19:02:34 10° SE visible
28 Oct -0.3 19:44:26 10° W 19:46:23 15° SW 19:48:20 10° SSW visible
